Year,Month,Day,Hour,Minute,Value (Times are PST for temperature in C)
2009,05,02,00,00,9.60
2009,05,02,00,01,9.60
2009,05,02,00,02,9.60
2009,05,02,00,03,9.60
2009,05,02,00,04,9.60
2009,05,02,00,05,9.60
2009,05,02,00,06,9.60
2009,05,02,00,07,9.60
2009,05,02,00,08,9.60
2009,05,02,00,09,9.60
2009,05,02,00,10,9.60
2009,05,02,00,11,9.60
2009,05,02,00,12,9.60
2009,05,02,00,13,9.60
2009,05,02,00,14,9.60
2009,05,02,00,15,9.60
2009,05,02,00,16,9.60
2009,05,02,00,17,9.60
2009,05,02,00,18,9.60
2009,05,02,00,19,9.60
2009,05,02,00,20,9.60
2009,05,02,00,21,9.60
2009,05,02,00,22,9.60
2009,05,02,00,23,9.60
2009,05,02,00,24,9.70
2009,05,02,00,25,9.70
2009,05,02,00,26,9.80
2009,05,02,00,27,9.80
2009,05,02,00,28,9.80
2009,05,02,00,29,9.90
2009,05,02,00,30,10.00
2009,05,02,00,31,10.10
2009,05,02,00,32,10.20
2009,05,02,00,33,10.30
2009,05,02,00,34,10.30
2009,05,02,00,35,10.40
2009,05,02,00,36,10.40
2009,05,02,00,37,10.40
2009,05,02,00,38,10.40
2009,05,02,00,39,10.50
2009,05,02,00,40,10.50
2009,05,02,00,41,10.50
2009,05,02,00,42,10.50
2009,05,02,00,43,10.50
2009,05,02,00,44,10.60
2009,05,02,00,45,10.60
2009,05,02,00,46,10.70
2009,05,02,00,47,10.70
2009,05,02,00,48,10.70
2009,05,02,00,49,10.70
2009,05,02,00,50,10.70
2009,05,02,00,51,10.70
2009,05,02,00,52,10.70
2009,05,02,00,53,10.60
2009,05,02,00,54,10.60
2009,05,02,00,55,10.60
2009,05,02,00,56,10.60
2009,05,02,00,57,10.60
2009,05,02,00,58,10.50
2009,05,02,00,59,10.50
2009,05,02,01,00,10.40
2009,05,02,01,01,10.30
2009,05,02,01,02,10.30
2009,05,02,01,03,10.20
2009,05,02,01,04,10.20
2009,05,02,01,05,10.10
2009,05,02,01,06,10.10
2009,05,02,01,07,10.00
2009,05,02,01,08,9.90
2009,05,02,01,09,9.90
2009,05,02,01,10,9.80
2009,05,02,01,11,9.80
2009,05,02,01,12,9.70
2009,05,02,01,13,9.70
2009,05,02,01,14,9.60
2009,05,02,01,15,9.60
2009,05,02,01,16,9.60
2009,05,02,01,17,9.50
2009,05,02,01,18,9.50
2009,05,02,01,19,9.40
2009,05,02,01,20,9.40
2009,05,02,01,21,9.40
2009,05,02,01,22,9.30
2009,05,02,01,23,9.30
2009,05,02,01,24,9.30
2009,05,02,01,25,9.30
2009,05,02,01,26,9.20
2009,05,02,01,27,9.20
2009,05,02,01,28,9.20
2009,05,02,01,29,9.20
2009,05,02,01,30,9.20
2009,05,02,01,31,9.20
2009,05,02,01,32,9.20
2009,05,02,01,33,9.20
2009,05,02,01,34,9.20
2009,05,02,01,35,9.20
2009,05,02,01,36,9.30
2009,05,02,01,37,9.30
2009,05,02,01,38,9.30
2009,05,02,01,39,9.30
2009,05,02,01,40,9.30
2009,05,02,01,41,9.30
2009,05,02,01,42,9.40
2009,05,02,01,43,9.50
2009,05,02,01,44,9.50
2009,05,02,01,45,9.60
2009,05,02,01,46,9.60
2009,05,02,01,47,9.60
2009,05,02,01,48,9.70
2009,05,02,01,49,9.80
2009,05,02,01,50,9.80
2009,05,02,01,51,9.80
2009,05,02,01,52,9.80
2009,05,02,01,53,9.80
2009,05,02,01,54,9.90
2009,05,02,01,55,9.90
2009,05,02,01,56,9.90
2009,05,02,01,57,9.90
2009,05,02,01,58,9.90
2009,05,02,01,59,9.90
2009,05,02,02,00,9.90
2009,05,02,02,01,9.90
2009,05,02,02,02,9.90
2009,05,02,02,03,10.00
2009,05,02,02,04,10.00
2009,05,02,02,05,10.00
2009,05,02,02,06,10.00
2009,05,02,02,07,10.00
2009,05,02,02,08,10.10
2009,05,02,02,09,10.10
2009,05,02,02,10,10.10
2009,05,02,02,11,10.10
2009,05,02,02,12,10.10
2009,05,02,02,13,10.10
2009,05,02,02,14,10.10
2009,05,02,02,15,10.10
2009,05,02,02,16,10.10
2009,05,02,02,17,10.10
2009,05,02,02,18,10.10
2009,05,02,02,19,10.00
2009,05,02,02,20,10.00
2009,05,02,02,21,10.00
2009,05,02,02,22,10.00
2009,05,02,02,23,9.90
2009,05,02,02,24,9.90
2009,05,02,02,25,9.90
2009,05,02,02,26,9.80
2009,05,02,02,27,9.80
2009,05,02,02,28,9.80
2009,05,02,02,29,9.80
2009,05,02,02,30,9.80
2009,05,02,02,31,9.80
2009,05,02,02,32,9.80
2009,05,02,02,33,9.70
2009,05,02,02,34,9.70
2009,05,02,02,35,9.70
2009,05,02,02,36,9.60
2009,05,02,02,37,9.60
2009,05,02,02,38,9.60
2009,05,02,02,39,9.60
2009,05,02,02,40,9.50
2009,05,02,02,41,9.50
2009,05,02,02,42,9.50
2009,05,02,02,43,9.50
2009,05,02,02,44,9.50
2009,05,02,02,45,9.40
2009,05,02,02,46,9.50
2009,05,02,02,47,9.40
2009,05,02,02,48,9.40
2009,05,02,02,49,9.40
2009,05,02,02,50,9.40
2009,05,02,02,51,9.40
2009,05,02,02,52,9.40
2009,05,02,02,53,9.40
2009,05,02,02,54,9.40
2009,05,02,02,55,9.40
2009,05,02,02,56,9.40
2009,05,02,02,57,9.40
2009,05,02,02,58,9.40
2009,05,02,02,59,9.40
2009,05,02,03,00,9.40
2009,05,02,03,01,9.40
2009,05,02,03,02,9.40
2009,05,02,03,03,9.40
2009,05,02,03,04,9.40
2009,05,02,03,05,9.40
2009,05,02,03,06,9.40
2009,05,02,03,07,9.40
2009,05,02,03,08,9.40
2009,05,02,03,09,9.40
2009,05,02,03,10,9.40
2009,05,02,03,11,9.30
2009,05,02,03,12,9.30
2009,05,02,03,13,9.30
2009,05,02,03,14,9.30
2009,05,02,03,15,9.30
2009,05,02,03,16,9.30
2009,05,02,03,17,9.30
2009,05,02,03,18,9.30
2009,05,02,03,19,9.30
2009,05,02,03,20,9.30
2009,05,02,03,21,9.30
2009,05,02,03,22,9.30
2009,05,02,03,23,9.30
2009,05,02,03,24,9.30
2009,05,02,03,25,9.20
2009,05,02,03,26,9.20
2009,05,02,03,27,9.20
2009,05,02,03,28,9.20
2009,05,02,03,29,9.20
2009,05,02,03,30,9.10
2009,05,02,03,31,9.10
2009,05,02,03,32,9.10
2009,05,02,03,33,9.00
2009,05,02,03,34,9.00
2009,05,02,03,35,8.90
2009,05,02,03,36,8.90
2009,05,02,03,37,8.90
2009,05,02,03,38,8.90
2009,05,02,03,39,8.80
2009,05,02,03,40,8.80
2009,05,02,03,41,8.80
2009,05,02,03,42,8.80
2009,05,02,03,43,8.80
2009,05,02,03,44,8.80
2009,05,02,03,45,8.80
2009,05,02,03,46,8.80
2009,05,02,03,47,8.80
2009,05,02,03,48,8.80
2009,05,02,03,49,8.80
2009,05,02,03,50,8.80
2009,05,02,03,51,8.80
2009,05,02,03,52,8.80
2009,05,02,03,53,8.80
2009,05,02,03,54,8.80
2009,05,02,03,55,8.80
2009,05,02,03,56,8.90
2009,05,02,03,57,8.90
2009,05,02,03,58,8.90
2009,05,02,03,59,8.90
2009,05,02,04,00,9.00
2009,05,02,04,01,9.00
2009,05,02,04,02,9.00
2009,05,02,04,03,9.00
2009,05,02,04,05,9.10
2009,05,02,04,06,9.20
2009,05,02,04,07,9.20
2009,05,02,04,08,9.20
2009,05,02,04,09,9.20
2009,05,02,04,10,9.20
2009,05,02,04,11,9.30
2009,05,02,04,12,9.30
2009,05,02,04,13,9.40
2009,05,02,04,14,9.50
2009,05,02,04,15,9.60
2009,05,02,04,16,9.60
2009,05,02,04,17,9.60
2009,05,02,04,18,9.70
2009,05,02,04,19,9.70
2009,05,02,04,20,9.70
2009,05,02,04,21,9.70
2009,05,02,04,22,9.70
2009,05,02,04,23,9.70
2009,05,02,04,24,9.70
2009,05,02,04,25,9.70
2009,05,02,04,26,9.70
2009,05,02,04,27,9.70
2009,05,02,04,28,9.70
2009,05,02,04,29,9.80
2009,05,02,04,30,9.80
2009,05,02,04,31,9.80
2009,05,02,04,32,9.80
2009,05,02,04,33,9.70
2009,05,02,04,34,9.70
2009,05,02,04,35,9.70
2009,05,02,04,36,9.60
2009,05,02,04,37,9.60
2009,05,02,04,38,9.60
2009,05,02,04,39,9.60
2009,05,02,04,40,9.60
2009,05,02,04,41,9.60
2009,05,02,04,42,9.60
2009,05,02,04,43,9.60
2009,05,02,04,44,9.60
2009,05,02,04,45,9.60
2009,05,02,04,46,9.60
2009,05,02,04,47,9.50
2009,05,02,04,48,9.50
2009,05,02,04,49,9.50
2009,05,02,04,50,9.50
2009,05,02,04,51,9.40
2009,05,02,04,52,9.40
2009,05,02,04,53,9.30
2009,05,02,04,54,9.30
2009,05,02,04,55,9.30
2009,05,02,04,56,9.20
2009,05,02,04,57,9.20
2009,05,02,04,58,9.20
2009,05,02,04,59,9.20
2009,05,02,05,00,9.20
2009,05,02,05,01,9.20
2009,05,02,05,02,9.20
2009,05,02,05,03,9.20
2009,05,02,05,04,9.20
2009,05,02,05,05,9.20
2009,05,02,05,06,9.20
2009,05,02,05,07,9.30
2009,05,02,05,08,9.30
2009,05,02,05,09,9.30
2009,05,02,05,10,9.30
2009,05,02,05,11,9.30
2009,05,02,05,12,9.30
2009,05,02,05,13,9.30
2009,05,02,05,14,9.30
2009,05,02,05,15,9.30
2009,05,02,05,16,9.30
2009,05,02,05,17,9.30
2009,05,02,05,18,9.30
2009,05,02,05,19,9.30
2009,05,02,05,20,9.30
2009,05,02,05,21,9.30
2009,05,02,05,22,9.30
2009,05,02,05,23,9.30
2009,05,02,05,24,9.30
2009,05,02,05,25,9.30
2009,05,02,05,26,9.40
2009,05,02,05,27,9.40
2009,05,02,05,28,9.40
2009,05,02,05,29,9.40
2009,05,02,05,30,9.40
2009,05,02,05,31,9.40
2009,05,02,05,32,9.50
2009,05,02,05,33,9.50
2009,05,02,05,34,9.50
2009,05,02,05,35,9.50
2009,05,02,05,36,9.50
2009,05,02,05,37,9.50
2009,05,02,05,38,9.50
2009,05,02,05,39,9.50
2009,05,02,05,40,9.40
2009,05,02,05,41,9.40
2009,05,02,05,42,9.40
2009,05,02,05,43,9.40
2009,05,02,05,44,9.40
2009,05,02,05,45,9.40
2009,05,02,05,46,9.40
2009,05,02,05,47,9.40
2009,05,02,05,48,9.40
2009,05,02,05,49,9.40
2009,05,02,05,50,9.40
2009,05,02,05,51,9.40
2009,05,02,05,52,9.30
2009,05,02,05,53,9.30
2009,05,02,05,54,9.30
2009,05,02,05,55,9.30
2009,05,02,05,56,9.30
2009,05,02,05,57,9.30
2009,05,02,05,58,9.30
2009,05,02,05,59,9.30
2009,05,02,06,00,9.30
2009,05,02,06,01,9.30
2009,05,02,06,02,9.30
2009,05,02,06,03,9.30
2009,05,02,06,04,9.30
2009,05,02,06,05,9.30
2009,05,02,06,06,9.30
2009,05,02,06,07,9.30
2009,05,02,06,08,9.30
2009,05,02,06,09,9.20
2009,05,02,06,10,9.20
2009,05,02,06,11,9.20
2009,05,02,06,12,9.20
2009,05,02,06,13,9.20
2009,05,02,06,14,9.20
2009,05,02,06,15,9.20
2009,05,02,06,16,9.20
2009,05,02,06,17,9.20
2009,05,02,06,18,9.20
2009,05,02,06,19,9.20
2009,05,02,06,20,9.20
2009,05,02,06,21,9.20
2009,05,02,06,22,9.30
2009,05,02,06,23,9.30
2009,05,02,06,24,9.30
2009,05,02,06,25,9.30
2009,05,02,06,26,9.30
2009,05,02,06,27,9.30
2009,05,02,06,28,9.30
2009,05,02,06,29,9.30
2009,05,02,06,30,9.30
2009,05,02,06,31,9.30
2009,05,02,06,32,9.30
2009,05,02,06,33,9.30
2009,05,02,06,34,9.30
2009,05,02,06,35,9.30
2009,05,02,06,36,9.30
2009,05,02,06,37,9.30
2009,05,02,06,38,9.30
2009,05,02,06,39,9.30
2009,05,02,06,40,9.30
2009,05,02,06,41,9.40
2009,05,02,06,42,9.40
2009,05,02,06,43,9.40
2009,05,02,06,44,9.40
2009,05,02,06,45,9.40
2009,05,02,06,46,9.50
2009,05,02,06,47,9.50
2009,05,02,06,48,9.50
2009,05,02,06,49,9.50
2009,05,02,06,50,9.60
2009,05,02,06,51,9.60
2009,05,02,06,52,9.60
2009,05,02,06,53,9.60
2009,05,02,06,54,9.60
2009,05,02,06,55,9.60
2009,05,02,06,56,9.60
2009,05,02,06,57,9.60
2009,05,02,06,58,9.60
2009,05,02,06,59,9.70
2009,05,02,07,00,9.60
2009,05,02,07,01,9.70
2009,05,02,07,02,9.70
2009,05,02,07,03,9.70
2009,05,02,07,04,9.70
2009,05,02,07,05,9.70
2009,05,02,07,06,9.70
2009,05,02,07,07,9.70
2009,05,02,07,08,9.70
2009,05,02,07,09,9.70
2009,05,02,07,10,9.70
2009,05,02,07,11,9.70
2009,05,02,07,12,9.80
2009,05,02,07,13,9.80
2009,05,02,07,14,9.80
2009,05,02,07,15,9.80
2009,05,02,07,16,9.80
2009,05,02,07,17,9.90
2009,05,02,07,18,9.90
2009,05,02,07,19,9.90
2009,05,02,07,20,9.90
2009,05,02,07,21,9.90
2009,05,02,07,22,10.00
2009,05,02,07,23,10.00
2009,05,02,07,24,10.00
2009,05,02,07,25,10.00
2009,05,02,07,26,10.00
2009,05,02,07,27,10.00
2009,05,02,07,28,10.00
2009,05,02,07,29,10.10
2009,05,02,07,30,10.10
2009,05,02,07,31,10.10
2009,05,02,07,32,10.10
2009,05,02,07,33,10.20
2009,05,02,07,34,10.20
2009,05,02,07,35,10.20
2009,05,02,07,36,10.20
2009,05,02,07,37,10.20
2009,05,02,07,38,10.20
2009,05,02,07,39,10.30
2009,05,02,07,40,10.30
2009,05,02,07,41,10.30
2009,05,02,07,42,10.30
2009,05,02,07,43,10.30
2009,05,02,07,44,10.40
2009,05,02,07,45,10.40
2009,05,02,07,46,10.40
2009,05,02,07,47,10.40
2009,05,02,07,48,10.40
2009,05,02,07,49,10.40
2009,05,02,07,50,10.40
2009,05,02,07,51,10.40
2009,05,02,07,52,10.40
2009,05,02,07,53,10.40
2009,05,02,07,54,10.40
2009,05,02,07,55,10.50
2009,05,02,07,56,10.50
2009,05,02,07,57,10.60
2009,05,02,07,58,10.60
2009,05,02,07,59,10.60
2009,05,02,08,00,10.70
2009,05,02,08,01,10.70
2009,05,02,08,02,10.80
2009,05,02,08,03,10.80
2009,05,02,08,04,10.90
2009,05,02,08,05,11.00
2009,05,02,08,06,11.10
2009,05,02,08,07,11.10
2009,05,02,08,08,11.20
2009,05,02,08,09,11.20
2009,05,02,08,10,11.30
2009,05,02,08,11,11.30
2009,05,02,08,12,11.40
2009,05,02,08,13,11.50
2009,05,02,08,14,11.50
2009,05,02,08,15,11.60
2009,05,02,08,16,11.70
2009,05,02,08,17,11.70
2009,05,02,08,18,11.80
2009,05,02,08,19,11.80
2009,05,02,08,20,11.80
2009,05,02,08,21,11.90
2009,05,02,08,22,11.90
2009,05,02,08,23,11.80
2009,05,02,08,24,11.80
2009,05,02,08,25,11.80
2009,05,02,08,26,11.90
2009,05,02,08,27,11.90
2009,05,02,08,28,11.90
2009,05,02,08,29,12.00
2009,05,02,08,30,12.00
2009,05,02,08,31,12.00
2009,05,02,08,32,12.10
2009,05,02,08,33,12.10
2009,05,02,08,34,12.10
2009,05,02,08,35,12.20
2009,05,02,08,36,12.20
2009,05,02,08,37,12.20
2009,05,02,08,38,12.20
2009,05,02,08,39,12.30
2009,05,02,08,40,12.30
2009,05,02,08,41,12.30
2009,05,02,08,42,12.40
2009,05,02,08,43,12.40
2009,05,02,08,44,12.40
2009,05,02,08,45,12.40
2009,05,02,08,46,12.50
2009,05,02,08,47,12.50
2009,05,02,08,48,12.50
2009,05,02,08,49,12.60
2009,05,02,08,50,12.60
2009,05,02,08,51,12.60
2009,05,02,08,52,12.60
2009,05,02,08,53,12.60
2009,05,02,08,54,12.70
2009,05,02,08,55,12.70
2009,05,02,08,56,12.70
2009,05,02,08,57,12.80
2009,05,02,08,58,12.80
2009,05,02,08,59,12.90
2009,05,02,09,00,12.90
2009,05,02,09,01,12.90
2009,05,02,09,02,13.00
2009,05,02,09,03,13.10
2009,05,02,09,04,13.10
2009,05,02,09,05,13.20
2009,05,02,09,06,13.20
2009,05,02,09,07,13.20
2009,05,02,09,08,13.30
2009,05,02,09,09,13.30
2009,05,02,09,10,13.40
2009,05,02,09,11,13.40
2009,05,02,09,12,13.40
2009,05,02,09,13,13.40
2009,05,02,09,14,13.50
2009,05,02,09,15,13.50
2009,05,02,09,16,13.50
2009,05,02,09,17,13.60
2009,05,02,09,18,13.60
2009,05,02,09,19,13.60
2009,05,02,09,20,13.60
2009,05,02,09,21,13.70
2009,05,02,09,22,13.70
2009,05,02,09,23,13.70
2009,05,02,09,24,13.70
2009,05,02,09,25,13.80
2009,05,02,09,26,13.80
2009,05,02,09,27,13.80
2009,05,02,09,28,13.90
2009,05,02,09,29,13.90
2009,05,02,09,30,14.00
2009,05,02,09,31,14.00
2009,05,02,09,32,14.10
2009,05,02,09,33,14.10
2009,05,02,09,34,14.20
2009,05,02,09,35,14.20
2009,05,02,09,36,14.20
2009,05,02,09,37,14.30
2009,05,02,09,38,14.30
2009,05,02,09,39,14.30
2009,05,02,09,40,14.30
2009,05,02,09,41,14.40
2009,05,02,09,42,14.40
2009,05,02,09,43,14.40
2009,05,02,09,44,14.40
2009,05,02,09,45,14.40
2009,05,02,09,46,14.40
2009,05,02,09,47,14.30
2009,05,02,09,48,14.30
2009,05,02,09,49,14.30
2009,05,02,09,50,14.30
2009,05,02,09,51,14.30
2009,05,02,09,52,14.30
2009,05,02,09,53,14.30
2009,05,02,09,54,14.30
2009,05,02,09,55,14.30
2009,05,02,09,56,14.30
2009,05,02,09,57,14.30
2009,05,02,09,58,14.30
2009,05,02,09,59,14.30
2009,05,02,10,00,14.30
2009,05,02,10,01,14.30
2009,05,02,10,02,14.40
2009,05,02,10,03,14.50
2009,05,02,10,04,14.60
2009,05,02,10,05,14.70
2009,05,02,10,06,14.80
2009,05,02,10,07,14.90
2009,05,02,10,08,15.00
2009,05,02,10,09,15.00
2009,05,02,10,10,15.00
2009,05,02,10,11,15.00
2009,05,02,10,12,15.10
2009,05,02,10,13,15.10
2009,05,02,10,14,15.10
2009,05,02,10,15,15.20
2009,05,02,10,16,15.20
2009,05,02,10,17,15.20
2009,05,02,10,18,15.20
2009,05,02,10,19,15.20
2009,05,02,10,20,15.20
2009,05,02,10,21,15.20
2009,05,02,10,22,15.20
2009,05,02,10,23,15.20
2009,05,02,10,24,15.30
2009,05,02,10,25,15.30
2009,05,02,10,26,15.30
2009,05,02,10,27,15.30
2009,05,02,10,28,15.20
2009,05,02,10,29,15.00
2009,05,02,10,30,15.00
2009,05,02,10,31,15.00
2009,05,02,10,32,15.00
2009,05,02,10,33,14.80
2009,05,02,10,34,14.70
2009,05,02,10,35,14.60
2009,05,02,10,36,14.50
2009,05,02,10,37,14.40
2009,05,02,10,38,14.30
2009,05,02,10,39,14.30
2009,05,02,10,40,14.30
2009,05,02,10,41,14.20
2009,05,02,10,42,14.20
2009,05,02,10,43,14.10
2009,05,02,10,44,14.10
2009,05,02,10,45,14.10
2009,05,02,10,46,14.10
2009,05,02,10,47,14.10
2009,05,02,10,48,14.20
2009,05,02,10,49,14.20
2009,05,02,10,50,14.20
2009,05,02,10,51,14.30
2009,05,02,10,52,14.30
2009,05,02,10,53,14.30
2009,05,02,10,54,14.40
2009,05,02,10,55,14.50
2009,05,02,10,56,14.50
2009,05,02,10,57,14.50
2009,05,02,10,58,14.60
2009,05,02,10,59,14.60
2009,05,02,11,00,14.60
2009,05,02,11,01,14.60
2009,05,02,11,02,14.60
2009,05,02,11,03,14.60
2009,05,02,11,04,14.70
2009,05,02,11,05,14.70
2009,05,02,11,06,14.80
2009,05,02,11,07,14.80
2009,05,02,11,08,14.90
2009,05,02,11,09,15.00
2009,05,02,11,10,15.00
2009,05,02,11,11,15.00
2009,05,02,11,12,15.10
2009,05,02,11,13,15.20
2009,05,02,11,14,15.30
2009,05,02,11,15,15.40
2009,05,02,11,16,15.50
2009,05,02,11,17,15.60
2009,05,02,11,18,15.60
2009,05,02,11,19,15.80
2009,05,02,11,20,15.90
2009,05,02,11,21,16.00
2009,05,02,11,22,16.00
2009,05,02,11,23,16.10
2009,05,02,11,24,16.10
2009,05,02,11,25,16.20
2009,05,02,11,26,16.20
2009,05,02,11,27,16.20
2009,05,02,11,28,16.20
2009,05,02,11,29,16.30
2009,05,02,11,30,16.30
2009,05,02,11,31,16.30
2009,05,02,11,32,16.30
2009,05,02,11,33,16.30
2009,05,02,11,34,16.30
2009,05,02,11,35,16.20
2009,05,02,11,36,16.20
2009,05,02,11,37,16.10
2009,05,02,11,38,16.10
2009,05,02,11,39,16.00
2009,05,02,11,40,15.90
2009,05,02,11,41,15.90
2009,05,02,11,42,15.80
2009,05,02,11,43,15.70
2009,05,02,11,44,15.70
2009,05,02,11,45,15.60
2009,05,02,11,46,15.60
2009,05,02,11,47,15.50
2009,05,02,11,48,15.40
2009,05,02,11,49,15.30
2009,05,02,11,50,15.20
2009,05,02,11,51,15.20
2009,05,02,11,52,15.20
2009,05,02,11,53,15.10
2009,05,02,11,54,15.00
2009,05,02,11,55,15.00
2009,05,02,11,56,15.00
2009,05,02,11,57,15.00
2009,05,02,11,58,15.00
2009,05,02,11,59,15.00
2009,05,02,12,00,15.00
2009,05,02,12,01,15.00
2009,05,02,12,02,15.00
2009,05,02,12,03,15.00
2009,05,02,12,04,15.00
2009,05,02,12,05,15.00
2009,05,02,12,06,15.00
2009,05,02,12,07,14.90
2009,05,02,12,08,14.90
2009,05,02,12,09,14.80
2009,05,02,12,10,14.80
2009,05,02,12,11,14.70
2009,05,02,12,12,14.70
2009,05,02,12,13,14.70
2009,05,02,12,14,14.60
2009,05,02,12,15,14.60
2009,05,02,12,16,14.60
2009,05,02,12,17,14.60
2009,05,02,12,18,14.50
2009,05,02,12,19,14.50
2009,05,02,12,20,14.50
2009,05,02,12,21,14.50
2009,05,02,12,22,14.40
2009,05,02,12,23,14.40
2009,05,02,12,24,14.40
2009,05,02,12,25,14.40
2009,05,02,12,26,14.40
2009,05,02,12,27,14.40
2009,05,02,12,28,14.40
2009,05,02,12,29,14.40
2009,05,02,12,30,14.40
2009,05,02,12,31,14.40
2009,05,02,12,32,14.40
2009,05,02,12,33,14.40
2009,05,02,12,34,14.40
2009,05,02,12,35,14.40
2009,05,02,12,36,14.40
2009,05,02,12,37,14.40
2009,05,02,12,38,14.50
2009,05,02,12,39,14.50
2009,05,02,12,40,14.50
2009,05,02,12,41,14.60
2009,05,02,12,42,14.60
2009,05,02,12,43,14.60
2009,05,02,12,44,14.60
2009,05,02,12,45,14.60
2009,05,02,12,46,14.60
2009,05,02,12,47,14.60
2009,05,02,12,48,14.60
2009,05,02,12,49,14.60
2009,05,02,12,50,14.50
2009,05,02,12,51,14.60
2009,05,02,12,52,14.50
2009,05,02,12,53,14.50
2009,05,02,12,54,14.50
2009,05,02,12,55,14.50
2009,05,02,12,56,14.40
2009,05,02,12,57,14.40
2009,05,02,12,58,14.40
2009,05,02,12,59,14.40
2009,05,02,13,00,14.40
2009,05,02,13,01,14.40
2009,05,02,13,02,14.40
2009,05,02,13,03,14.40
2009,05,02,13,04,14.30
2009,05,02,13,05,14.30
2009,05,02,13,06,14.20
2009,05,02,13,07,14.20
2009,05,02,13,08,14.20
2009,05,02,13,09,14.20
2009,05,02,13,10,14.20
2009,05,02,13,11,14.20
2009,05,02,13,12,14.10
2009,05,02,13,13,14.10
2009,05,02,13,14,14.10
2009,05,02,13,15,14.10
2009,05,02,13,16,14.10
2009,05,02,13,17,14.00
2009,05,02,13,18,14.00
2009,05,02,13,19,14.00
2009,05,02,13,20,14.00
2009,05,02,13,21,14.00
2009,05,02,13,22,14.00
2009,05,02,13,23,14.00
2009,05,02,13,24,14.10
2009,05,02,13,25,14.10
2009,05,02,13,26,14.10
2009,05,02,13,27,14.10
2009,05,02,13,28,14.20
2009,05,02,13,29,14.20
2009,05,02,13,30,14.20
2009,05,02,13,31,14.20
2009,05,02,13,32,14.20
2009,05,02,13,33,14.30
2009,05,02,13,34,14.30
2009,05,02,13,35,14.30
2009,05,02,13,36,14.30
2009,05,02,13,37,14.40
2009,05,02,13,38,14.40
2009,05,02,13,39,14.40
2009,05,02,13,40,14.50
2009,05,02,13,41,14.50
2009,05,02,13,42,14.50
2009,05,02,13,43,14.60
2009,05,02,13,44,14.60
2009,05,02,13,45,14.60
2009,05,02,13,46,14.60
2009,05,02,13,47,14.60
2009,05,02,13,48,14.60
2009,05,02,13,49,14.60
2009,05,02,13,50,14.60
2009,05,02,13,51,14.60
2009,05,02,13,52,14.60
2009,05,02,13,53,14.60
2009,05,02,13,54,14.60
2009,05,02,13,55,14.60
2009,05,02,13,56,14.60
2009,05,02,13,57,14.60
2009,05,02,13,58,14.60
2009,05,02,13,59,14.60
2009,05,02,14,00,14.60
2009,05,02,14,01,14.60
2009,05,02,14,02,14.50
2009,05,02,14,03,14.50
2009,05,02,14,04,14.50
2009,05,02,14,05,14.50
2009,05,02,14,06,14.40
2009,05,02,14,07,14.50
2009,05,02,14,08,14.50
2009,05,02,14,09,14.50
2009,05,02,14,10,14.60
2009,05,02,14,11,14.60
2009,05,02,14,12,14.60
2009,05,02,14,13,14.60
2009,05,02,14,14,14.60
2009,05,02,14,15,14.60
2009,05,02,14,16,14.60
2009,05,02,14,17,14.60
2009,05,02,14,18,14.60
2009,05,02,14,19,14.70
2009,05,02,14,20,14.70
2009,05,02,14,21,14.70
2009,05,02,14,22,14.70
2009,05,02,14,23,14.70
2009,05,02,14,24,14.60
2009,05,02,14,25,14.60
2009,05,02,14,26,14.60
2009,05,02,14,27,14.60
2009,05,02,14,28,14.50
2009,05,02,14,29,14.50
2009,05,02,14,30,14.50
2009,05,02,14,31,14.60
2009,05,02,14,32,14.60
2009,05,02,14,33,14.50
2009,05,02,14,34,14.50
2009,05,02,14,35,14.40
2009,05,02,14,36,14.40
2009,05,02,14,37,14.40
2009,05,02,14,38,14.40
2009,05,02,14,39,14.40
2009,05,02,14,40,14.40
2009,05,02,14,41,14.30
2009,05,02,14,42,14.20
2009,05,02,14,43,14.10
2009,05,02,14,44,14.10
2009,05,02,14,45,14.10
2009,05,02,14,46,14.10
2009,05,02,14,47,14.10
2009,05,02,14,48,14.10
2009,05,02,14,49,14.10
2009,05,02,14,50,14.10
2009,05,02,14,51,14.10
2009,05,02,14,52,14.10
2009,05,02,14,53,14.10
2009,05,02,14,54,14.10
2009,05,02,14,55,14.10
2009,05,02,14,56,14.10
2009,05,02,14,57,14.10
2009,05,02,14,58,14.10
2009,05,02,14,59,14.10
2009,05,02,15,00,14.10
2009,05,02,15,01,14.10
2009,05,02,15,02,14.10
2009,05,02,15,03,14.10
2009,05,02,15,04,14.10
2009,05,02,15,05,14.10
2009,05,02,15,06,14.10
2009,05,02,15,07,14.10
2009,05,02,15,08,14.20
2009,05,02,15,09,14.20
2009,05,02,15,10,14.20
2009,05,02,15,11,14.20
2009,05,02,15,12,14.20
2009,05,02,15,13,14.20
2009,05,02,15,14,14.20
2009,05,02,15,15,14.20
2009,05,02,15,16,14.20
2009,05,02,15,17,14.30
2009,05,02,15,18,14.30
2009,05,02,15,19,14.30
2009,05,02,15,20,14.30
2009,05,02,15,21,14.30
2009,05,02,15,22,14.30
2009,05,02,15,23,14.20
2009,05,02,15,24,14.20
2009,05,02,15,25,14.20
2009,05,02,15,26,14.20
2009,05,02,15,27,14.10
2009,05,02,15,28,14.20
2009,05,02,15,29,14.10
2009,05,02,15,30,14.10
2009,05,02,15,31,14.10
2009,05,02,15,32,14.10
2009,05,02,15,33,14.10
2009,05,02,15,34,14.20
2009,05,02,15,35,14.10
2009,05,02,15,36,14.10
2009,05,02,15,37,14.10
2009,05,02,15,38,14.20
2009,05,02,15,39,14.20
2009,05,02,15,40,14.30
2009,05,02,15,41,14.30
2009,05,02,15,42,14.30
2009,05,02,15,43,14.30
2009,05,02,15,44,14.30
2009,05,02,15,45,14.30
2009,05,02,15,46,14.30
2009,05,02,15,47,14.30
2009,05,02,15,48,14.30
2009,05,02,15,49,14.30
2009,05,02,15,50,14.30
2009,05,02,15,51,14.20
2009,05,02,15,52,14.30
2009,05,02,15,53,14.20
2009,05,02,15,54,14.30
2009,05,02,15,55,14.30
2009,05,02,15,56,14.30
2009,05,02,15,57,14.20
2009,05,02,15,58,14.20
2009,05,02,15,59,14.20
2009,05,02,16,00,14.10
2009,05,02,16,01,14.10
2009,05,02,16,02,14.10
2009,05,02,16,03,14.10
2009,05,02,16,04,14.10
2009,05,02,16,05,14.00
2009,05,02,16,06,14.00
2009,05,02,16,07,14.00
2009,05,02,16,08,14.00
2009,05,02,16,09,13.90
2009,05,02,16,10,13.90
2009,05,02,16,11,13.90
2009,05,02,16,12,13.90
2009,05,02,16,13,13.90
2009,05,02,16,14,13.90
2009,05,02,16,15,14.00
2009,05,02,16,16,14.00
2009,05,02,16,17,14.10
2009,05,02,16,18,14.10
2009,05,02,16,19,14.10
2009,05,02,16,20,14.10
2009,05,02,16,21,14.10
2009,05,02,16,22,14.10
2009,05,02,16,23,14.20
2009,05,02,16,24,14.20
2009,05,02,16,25,14.30
2009,05,02,16,26,14.30
2009,05,02,16,27,14.30
2009,05,02,16,28,14.30
2009,05,02,16,29,14.30
2009,05,02,16,30,14.30
2009,05,02,16,31,14.30
2009,05,02,16,32,14.30
2009,05,02,16,33,14.30
2009,05,02,16,34,14.30
2009,05,02,16,35,14.30
2009,05,02,16,36,14.30
2009,05,02,16,37,14.40
2009,05,02,16,38,14.40
2009,05,02,16,39,14.40
2009,05,02,16,40,14.50
2009,05,02,16,41,14.60
2009,05,02,16,42,14.60
2009,05,02,16,43,14.60
2009,05,02,16,44,14.60
2009,05,02,16,45,14.60
2009,05,02,16,46,14.60
2009,05,02,16,47,14.60
2009,05,02,16,48,14.60
2009,05,02,16,49,14.60
2009,05,02,16,50,14.60
2009,05,02,16,51,14.60
2009,05,02,16,52,14.60
2009,05,02,16,53,14.70
2009,05,02,16,54,14.60
2009,05,02,16,55,14.60
2009,05,02,16,56,14.70
2009,05,02,16,57,14.70
2009,05,02,16,58,14.70
2009,05,02,16,59,14.60
2009,05,02,17,00,14.60
2009,05,02,17,01,14.60
2009,05,02,17,02,14.60
2009,05,02,17,03,14.60
2009,05,02,17,04,14.60
2009,05,02,17,05,14.70
2009,05,02,17,06,14.70
2009,05,02,17,07,14.70
2009,05,02,17,08,14.80
2009,05,02,17,09,14.80
2009,05,02,17,10,14.90
2009,05,02,17,11,14.90
2009,05,02,17,12,15.00
2009,05,02,17,13,15.00
2009,05,02,17,14,15.00
2009,05,02,17,15,15.00
2009,05,02,17,16,15.00
2009,05,02,17,17,15.00
2009,05,02,17,18,15.00
2009,05,02,17,19,15.00
2009,05,02,17,20,15.00
2009,05,02,17,21,15.00
2009,05,02,17,22,15.00
2009,05,02,17,23,15.00
2009,05,02,17,24,15.00
2009,05,02,17,25,14.90
2009,05,02,17,26,14.90
2009,05,02,17,27,14.90
2009,05,02,17,28,14.80
2009,05,02,17,29,14.80
2009,05,02,17,30,14.80
2009,05,02,17,31,14.70
2009,05,02,17,32,14.70
2009,05,02,17,33,14.60
2009,05,02,17,34,14.50
2009,05,02,17,35,14.50
2009,05,02,17,36,14.40
2009,05,02,17,37,14.40